Location: Carcen
(43.8823°N, 0.8071°W)
Time: 19:22:31
(UTC+00:00)

Daily predictions for brighter satellites

Satellite Brightness Start Highest point End
(mag) Time Altitude Azimuth Time Altitude Azimuth Time Altitude Azimuth
NOSS 3-1 (A) 4.5 18:37:30 10° NW 18:44:59 74° WSW 18:53:58 10° SSE
SPOT 1/Viking Rocket 3.9 18:42:53 10° SE 18:47:50 46° ENE 18:52:46 10° N
Landsat 7 4.0 18:44:08 10° S 18:48:49 78° WSW 18:53:32 10° NNW
ATLAS 2AS CENTAUR R/B 4.0 18:43:37 10° WSW 18:50:35 46° NW 18:57:21 10° NNE
USA 306 4.3 18:51:20 10° SE 18:52:01 10° ESE 18:52:43 10° ESE
ATLAS CENTAUR R/B 2.9 18:50:43 10° NW 18:55:33 83° NE 19:03:17 10° SE
Cosmos 2360 Rocket 2.3 18:50:22 10° SSW 18:56:02 86° WNW 19:01:43 10° NNE
Cosmos 1898 Rocket 3.5 18:51:16 10° NNW 18:56:36 70° ENE 19:01:50 10° SSE
Okean O Rocket 3.4 18:55:20 10° E 18:57:57 16° ENE 19:00:35 10° NNE
Cosmos 1151 Rocket 3.2 18:54:16 10° N 18:58:25 47° ENE 19:02:30 10° SSE
Cosmos 1340 3.0 18:55:55 10° SSE 18:58:53 33° E 19:01:52 10° NNE
USA 186 3.2 18:58:48 10° ESE 19:01:17 21° ENE 19:03:47 10° NNE
Meteor PRIRODA 3.6 18:58:19 10° SSE 19:01:31 48° ENE 19:04:44 10° N
Resurs 01 Rocket 2.6 18:58:29 10° SE 19:02:15 28° ENE 19:06:02 10° N
Cosmos 2322 Rocket 2.9 18:59:20 10° SW 19:04:57 60° WNW 19:10:37 10° NNE
Helios 1A 2.9 19:06:43 10° NNE 19:10:44 59° ESE 19:14:43 10° S
ACS3 Solar Sail 2.9 19:05:41 10° ESE 19:10:49 26° ENE 19:15:58 10° N
BlueWalker 3 3.5 19:09:05 10° NW 19:12:12 24° NNE 19:15:19 10° ENE
Cosmos 2333 Rocket 2.7 19:07:12 10° SW 19:12:56 69° WNW 19:18:43 10° NNE
Cosmos 44 Rocket 3.9 19:09:18 10° NNW 19:13:47 39° NE 19:17:37 13° ESE
SAR-Lupe-2 3.9 19:13:00 10° S 19:16:33 67° WSW 19:20:07 10° NNW
Cosmos 2219 Rocket 2.2 19:11:16 10° SSW 19:16:55 75° ESE 19:22:36 10° NNE
SL-08 R/B 3.4 19:13:16 10° NNE 19:18:13 89° WNW 19:23:08 10° SSW
ATLAS 3B R/B 3.4 19:10:57 10° NW 19:18:46 68° WSW 19:26:20 10° SSE
SKYMED 3 4.4 19:15:20 10° NNE 19:19:29 86° ESE 19:23:36 10° SSW
Meteor 1-5 Rocket 4.2 19:14:46 10° S 19:20:21 86° E 19:26:10 10° N
CSL-04 Rocket 4.1 19:17:25 10° SE 19:22:26 41° ENE 19:27:26 10° N
BREEZE-M DEB (TANK) 2.1 19:20:48 10° WSW 19:22:57 57° NNW 19:25:16 10° ENE
Cosmos 1626 2.5 19:20:04 10° NNW 19:23:00 51° W 19:25:55 10° S
SL-16 R/B 4.4 19:20:29 10° WSW 19:25:19 28° NW 19:30:12 10° N
Cosmos 1842 4.4 19:23:43 10° NNE 19:26:37 22° ENE 19:27:54 18° ESE
USA 229 DEB 4.0 19:20:33 10° NW 19:28:05 80° NE 19:35:59 11° SE
USA 229 4.0 19:20:43 10° NW 19:28:15 80° NE 19:36:04 11° SE
CZ-4B R/B 3.7 19:23:40 10° S 19:28:22 69° WSW 19:33:08 10° NNW
SJ-6B 2.9 19:25:00 10° S 19:28:38 70° WSW 19:32:15 10° NNW
Cosmos 1766 Rocket 3.9 19:26:38 10° SSE 19:30:43 42° E 19:34:52 10° NNE
Timation 2 Rocket 4.1 19:26:01 10° NNW 19:32:19 82° WSW 19:38:52 10° SSE
BREEZE-M R/B 4.1 19:32:23 10° WNW 19:36:29 58° N 19:49:01 11° E
Cosmos 2322 3.7 19:32:13 10° S 19:37:45 60° ESE 19:43:19 10° NNE
USA 276 3.9 19:37:25 10° WNW 19:39:44 22° N 19:41:31 13° NE
GEOS 3 Rocket 4.3 19:36:57 10° SSE 19:42:04 53° WSW 19:47:10 10° NW
Cosmos 1066 Rocket 4.3 19:36:43 10° N 19:42:37 73° ENE 19:48:26 10° SSE
Cosmos 1400 Rocket 2.6 19:39:51 10° N 19:43:41 65° ENE 19:46:25 18° SSE
CZ-4 R/B 1.7 19:43:24 10° S 19:47:07 62° W 19:50:56 10° NNW
Cosmos 1891 Rocket 4.5 19:41:56 10° SSE 19:47:48 57° E 19:53:47 10° NNE
Cosmos 1726 2.1 19:45:15 10° SSW 19:48:00 55° W 19:50:48 10° N
Cosmos 1707 3.3 19:45:01 10° N 19:48:14 32° ENE 19:48:45 30° E
Cosmos 1536 3.3 19:55:08 34° E 19:55:21 34° E 19:58:50 10° NNE
COSMOS 2428 2.6 19:51:09 10° SSW 19:56:48 70° ESE 20:02:30 10° NNE
Cosmos 1818 3.7 19:51:36 10° SW 19:57:03 80° NW 20:02:34 10° NNE
Cosmos 1937 Rocket 4.4 19:52:16 10° NNW 19:57:19 48° WSW 20:02:23 10° S
CSL-04 Debris 4.1 19:51:56 10° SSE 19:57:22 86° ENE 20:02:53 10° NNW
Lacrosse 4 Rocket 1.4 19:54:06 10° NNW 19:58:29 77° ENE 20:00:26 32° SE
KORONAS-FOTON 3.7 19:54:56 10° N 19:58:36 58° E 19:59:46 37° SE
Nadezhda 4 Rocket 4.4 19:56:53 10° N 20:02:49 43° ENE 20:05:35 28° SE
Meteor 1-4 Rocket 2.3 20:00:11 10° N 20:02:21 46° NNE 20:02:21 46° NNE
Cosmos 1356 Rocket 3.7 19:58:49 10° N 20:02:52 47° ENE 20:03:51 39° ESE
Meteor 1-14 Rocket 4.1 19:59:15 10° S 20:04:47 76° E 20:10:19 10° NNE
Cosmos 1943 Rocket 3.2 20:00:07 10° N 20:04:54 29° NE 20:06:27 25° E
Cosmos 1743 4.3 20:03:10 10° SW 20:06:26 33° WNW 20:09:43 10° N
Cosmos 1513 Rocket 4.3 20:00:41 10° S 20:06:41 73° E 20:12:45 10° NNE
Cosmos 1674 2.6 20:03:28 10° NNW 20:06:48 66° W 20:08:23 28° S
Cosmos 1328 Rocket 3.6 20:03:45 10° NNW 20:08:02 77° W 20:11:04 19° S
Terra 3.1 20:09:10 22° ENE 20:09:17 22° ENE 20:12:54 10° NNE
Cosmos 1464 Rocket 4.0 20:04:05 10° S 20:10:13 59° E 20:16:27 10° NNE
USA 59 Rocket 0.3 20:06:37 10° NNW 20:10:28 54° NE 20:11:54 39° ESE
Meteor 1-11 Rocket 4.0 20:09:43 28° SSE 20:12:16 45° E 20:17:34 10° NNE
Cosmos 1125 Rocket 4.1 20:13:09 10° N 20:17:57 36° ENE 20:18:45 34° E
ERS-1 Rocket 3.7 20:19:35 33° ENE 20:20:01 34° ENE 20:24:32 10° N
USA 290 3.2 20:17:20 10° N 20:19:44 37° NNE 20:19:44 37° NNE
CZ-4B R/B 3.7 20:15:15 10° S 20:20:40 58° WSW 20:26:02 10° NNW
Cosmos 2278 Rocket 2.4 20:15:45 10° NNW 20:21:20 56° ENE 20:22:57 41° ESE
Meteor 2-9 Rocket 4.3 20:20:43 42° ESE 20:21:28 45° E 20:26:33 10° NNE
USA 306 2.5 20:20:42 10° SW 20:23:20 60° SW 20:23:20 60° SW
SPOT 5 2.8 20:24:19 50° ESE 20:25:11 59° ENE 20:29:42 10° N
NOSS 2-1 (C) 3.5 20:23:05 10° NW 20:26:59 77° NE 20:27:51 57° ESE
Cosmos 2034 Rocket 4.0 20:26:34 35° SSE 20:29:01 56° E 20:35:03 10° NNE
TSX-5 3.9 20:26:15 10° NW 20:29:08 51° WSW 20:29:08 51° WSW
Okean 3 Rocket 3.6 20:28:15 23° SSW 20:31:00 81° W 20:35:29 10° N
USA 186 4.3 20:30:41 11° SW 20:32:56 19° W 20:35:21 10° NW
Okean O Rocket 2.1 20:31:49 31° SSW 20:33:43 59° W 20:38:07 10° NNW
NOSS 0 Rocket 3.8 20:31:03 10° SSW 20:37:18 85° ESE 20:43:35 10° NNE
Resurs 01 Rocket 3.4 20:34:44 10° SSW 20:38:36 29° W 20:42:29 10° NW
USA 215 3.2 20:37:07 10° NE 20:43:34 57° SE 20:49:58 10° SSW
MOS 1 Rocket 3.3 20:45:59 70° ESE 20:46:15 72° ENE 20:51:24 10° N
Cosmos 2237 Rocket 2.0 20:46:17 40° S 20:48:21 73° ESE 20:53:58 10° NNE
Okean-O 2.7 20:49:39 66° SW 20:49:58 69° WSW 20:54:23 10° NNW
BlueWalker 3 2.7 20:46:54 10° NW 20:49:46 49° NW 20:49:46 49° NW
Aureole 3 Rocket 4.1 20:47:44 27° S 20:52:16 76° E 20:58:03 10° NNE
Cosmos 1515 Rocket 4.1 20:49:54 10° NNW 20:54:08 54° W 20:54:36 51° WSW
ACS3 Solar Sail 2.4 20:50:27 23° S 20:54:26 58° W 21:00:45 10° NNW
Sich 1 4.2 20:57:05 34° NNE 20:57:05 34° NNE 20:59:36 10° NNE
MetOp-B 4.2 20:59:08 59° SSW 21:00:03 73° WSW 21:05:27 10° NNW
NOSS 2-1 (E) 4.1 20:59:02 10° NW 21:02:59 56° WSW 21:02:59 56° WSW
SL-24 R/B 4.5 21:08:24 76° W 21:08:24 76° W 21:13:18 10° N
BREEZE-M DEB (TANK) 4.3 20:50:16 10° W 21:08:35 59° N 21:10:46 37° NE
Cosmos 1500 Rocket 4.4 21:11:22 46° NNW 21:11:22 46° NNW 21:14:33 10° N
IRS-1C Rocket 4.1 21:14:37 77° W 21:14:37 77° W 21:19:50 10° NNW
Cosmos 1980 4.0 21:11:28 10° SW 21:17:06 64° WNW 21:22:46 10° NNE
USA 267 3.7 21:16:21 46° ENE 21:17:40 52° NNE 21:23:59 10° NW
Spot 2 Rocket 3.9 21:21:59 58° N 21:21:59 58° N 21:26:01 10° NNW
Cosmos 2369 Rocket 3.7 21:17:36 10° N 21:21:39 25° NE 21:21:39 25° NE
USA 32 4.4 21:19:09 10° NNW 21:24:11 61° W 21:24:11 61° W
Lacrosse 4 Rocket 4.3 21:34:48 10° W 21:36:00 11° WSW 21:36:18 11° WSW
SL-16 R/B 4.1 21:49:08 19° NE 21:49:08 19° NE 21:50:41 10° NNE
Terra 3.2 21:47:52 35° WNW 21:47:52 35° WNW 21:51:04 10° NNW
NOSS 3-4 (A) 4.5 21:41:20 10° NNW 21:47:43 42° NE 21:47:59 42° NE
NOSS 3-4 (C) 4.5 21:41:26 10° NNW 21:47:49 42° NE 21:48:05 42° NE
Cosmos 1943 Rocket 3.1 21:43:34 10° NW 21:47:58 42° W 21:47:58 42° W
Cosmos 1092 Rocket 4.4 21:44:16 10° NNW 21:50:26 57° W 21:50:30 57° W
Ariane Rocket 4.2 21:54:54 40° NW 21:54:54 40° NW 21:58:20 10° NNW
USA 59 Rocket 2.6 21:56:40 10° WNW 21:58:17 17° W 21:58:17 17° W
Cosmos 1634 Rocket 4.5 22:01:43 56° WNW 22:01:43 56° WNW 22:07:43 10° N
Cosmos 2278 Rocket 4.0 22:00:40 10° NW 22:04:48 22° W 22:04:48 22° W
USA 215 3.9 22:20:13 10° NE 22:26:31 52° NNW 22:32:49 10° WSW
Cosmos 2237 Rocket 4.4 22:28:52 10° W 22:33:00 21° NW 22:37:09 10° N
Cosmos 2369 Rocket 4.1 23:01:05 10° NNW 23:03:25 25° NW 23:03:25 25° NW
SL-16 R/B 4.3 23:30:58 22° NNW 23:30:58 22° NNW 23:34:08 10° N
